Time,TemperatureF,DewpointF,PressureIn,WindDirection,WindDirectionDegrees,WindSpeedMPH,WindSpeedGustMPH,Humidity,HourlyPrecipIn,Conditions,Clouds,dailyrainin,SolarRadiationWatts/m^2,SoftwareType,DateUTC
2013-07-11 00:01:00,79.1,71.6,29.83,East,100,0.0,1.0,78,0.00,,,0.00,0,WeatherCatV1.11B39,2013-07-11 07:01:00,
2013-07-11 00:06:00,78.4,72.4,29.83,East,100,0.0,2.0,82,0.00,,,0.00,0,WeatherCatV1.11B39,2013-07-11 07:06:00,
2013-07-11 00:11:00,77.6,72.0,29.82,East,100,0.0,2.0,83,0.00,,,0.00,0,WeatherCatV1.11B39,2013-07-11 07:11:00,
2013-07-11 00:16:00,77.5,72.3,29.82,East,100,1.0,1.0,84,0.00,,,0.01,0,WeatherCatV1.11B39,2013-07-11 07:16:00,
2013-07-11 00:21:00,77.3,72.8,29.83,East,100,0.0,0.0,86,0.00,,,0.01,0,WeatherCatV1.11B39,2013-07-11 07:21:00,
2013-07-11 00:26:00,77.1,72.2,29.83,East,101,0.0,2.0,85,0.00,,,0.01,0,WeatherCatV1.11B39,2013-07-11 07:26:00,
2013-07-11 00:31:00,76.9,72.7,29.82,East,101,0.0,0.0,87,0.00,,,0.01,0,WeatherCatV1.11B39,2013-07-11 07:31:00,
2013-07-11 00:36:00,76.4,72.6,29.80,East,99,1.0,3.0,88,0.04,,,0.02,0,WeatherCatV1.11B39,2013-07-11 07:36:00,
2013-07-11 00:41:00,76.1,72.3,29.80,NNE,23,0.0,3.0,88,0.04,,,0.02,0,WeatherCatV1.11B39,2013-07-11 07:41:00,
2013-07-11 00:46:00,75.9,72.1,29.81,NNE,23,0.0,2.0,88,0.04,,,0.02,0,WeatherCatV1.11B39,2013-07-11 07:46:00,
2013-07-11 00:51:00,76.2,72.7,29.82,NNE,23,2.0,2.0,89,0.04,,,0.03,0,WeatherCatV1.11B39,2013-07-11 07:51:00,
2013-07-11 00:56:00,76.0,72.8,29.82,NNE,23,1.0,1.0,90,0.04,,,0.03,0,WeatherCatV1.11B39,2013-07-11 07:56:00,
2013-07-11 01:01:00,75.8,73.0,29.82,NNE,23,0.0,0.0,91,0.04,,,0.03,0,WeatherCatV1.11B39,2013-07-11 08:01:00,
2013-07-11 01:06:00,75.8,73.0,29.82,NNE,23,0.0,1.0,91,0.00,,,0.03,0,WeatherCatV1.11B39,2013-07-11 08:06:00,
2013-07-11 01:11:00,75.6,72.8,29.82,NNE,23,0.0,1.0,91,0.00,,,0.04,0,WeatherCatV1.11B39,2013-07-11 08:11:00,
2013-07-11 01:16:00,75.7,72.9,29.82,NNE,23,0.0,0.0,91,0.00,,,0.04,0,WeatherCatV1.11B39,2013-07-11 08:16:00,
2013-07-11 01:21:00,75.7,73.2,29.82,NNE,23,0.0,0.0,92,0.05,,,0.05,0,WeatherCatV1.11B39,2013-07-11 08:21:00,
2013-07-11 01:26:00,75.7,73.2,29.83,NNE,23,0.0,1.0,92,0.05,,,0.05,0,WeatherCatV1.11B39,2013-07-11 08:26:00,
2013-07-11 01:31:00,75.8,73.6,29.83,NNE,27,2.0,2.0,93,0.05,,,0.05,0,WeatherCatV1.11B39,2013-07-11 08:31:00,
2013-07-11 01:36:00,75.3,72.5,29.84,ESE,111,2.0,3.0,91,0.00,,,0.05,0,WeatherCatV1.11B39,2013-07-11 08:36:00,
2013-07-11 01:41:00,75.5,73.0,29.84,SE,134,0.0,2.0,92,0.00,,,0.05,0,WeatherCatV1.11B39,2013-07-11 08:41:00,
2013-07-11 01:46:00,75.3,72.5,29.84,SSW,202,2.0,3.0,91,0.00,,,0.05,0,WeatherCatV1.11B39,2013-07-11 08:46:00,
2013-07-11 01:51:00,75.2,72.1,29.84,SW,234,1.0,4.0,90,0.00,,,0.05,0,WeatherCatV1.11B39,2013-07-11 08:51:00,
2013-07-11 01:56:00,75.3,72.2,29.84,SW,234,3.0,4.0,90,0.00,,,0.05,0,WeatherCatV1.11B39,2013-07-11 08:56:00,
2013-07-11 02:01:00,75.2,72.1,29.84,WNW,284,6.0,6.0,90,0.00,,,0.05,0,WeatherCatV1.11B39,2013-07-11 09:01:00,
2013-07-11 02:06:00,75.2,72.1,29.84,WNW,296,2.0,5.0,90,0.00,,,0.05,0,WeatherCatV1.11B39,2013-07-11 09:06:00,
2013-07-11 02:11:00,75.1,72.3,29.83,NW,313,2.0,6.0,91,0.00,,,0.05,0,WeatherCatV1.11B39,2013-07-11 09:11:00,
2013-07-11 02:16:00,74.8,71.7,29.83,NW,322,4.0,6.0,90,0.00,,,0.05,0,WeatherCatV1.11B39,2013-07-11 09:16:00,
2013-07-11 02:21:00,74.5,71.4,29.83,NW,322,0.0,2.0,90,0.00,,,0.05,0,WeatherCatV1.11B39,2013-07-11 09:21:00,
2013-07-11 02:26:00,74.3,71.2,29.83,NNW,343,2.0,4.0,90,0.00,,,0.05,0,WeatherCatV1.11B39,2013-07-11 09:26:00,
2013-07-11 02:31:00,74.2,71.1,29.82,NNW,343,1.0,3.0,90,0.00,,,0.05,0,WeatherCatV1.11B39,2013-07-11 09:31:00,
2013-07-11 02:36:00,74.3,71.5,29.81,NNW,343,2.0,4.0,91,0.00,,,0.05,0,WeatherCatV1.11B39,2013-07-11 09:36:00,
2013-07-11 02:41:00,74.3,71.5,29.80,NNW,343,0.0,0.0,91,0.00,,,0.05,0,WeatherCatV1.11B39,2013-07-11 09:41:00,
2013-07-11 02:46:00,74.4,71.9,29.81,North,353,2.0,2.0,92,0.00,,,0.05,0,WeatherCatV1.11B39,2013-07-11 09:46:00,
2013-07-11 02:51:00,74.4,71.9,29.80,South,176,0.0,3.0,92,0.00,,,0.05,0,WeatherCatV1.11B39,2013-07-11 09:51:00,
2013-07-11 02:56:00,74.4,71.9,29.79,South,173,5.0,6.0,92,0.00,,,0.05,0,WeatherCatV1.11B39,2013-07-11 09:56:00,
2013-07-11 03:01:00,74.2,71.7,29.78,South,188,2.0,4.0,92,0.00,,,0.06,0,WeatherCatV1.11B39,2013-07-11 10:01:00,
2013-07-11 03:06:00,74.0,71.5,29.78,SSW,200,1.0,3.0,92,0.00,,,0.06,0,WeatherCatV1.11B39,2013-07-11 10:06:00,
2013-07-11 03:11:00,73.8,71.3,29.78,South,174,3.0,3.0,92,0.00,,,0.06,0,WeatherCatV1.11B39,2013-07-11 10:11:00,
2013-07-11 03:16:00,73.5,71.0,29.77,South,174,0.0,1.0,92,0.00,,,0.06,0,WeatherCatV1.11B39,2013-07-11 10:16:00,
2013-07-11 03:21:00,73.3,71.1,29.77,South,174,0.0,1.0,93,0.00,,,0.06,0,WeatherCatV1.11B39,2013-07-11 10:21:00,
2013-07-11 03:26:00,73.3,71.1,29.78,South,174,0.0,1.0,93,0.00,,,0.06,0,WeatherCatV1.11B39,2013-07-11 10:26:00,
2013-07-11 03:31:00,73.1,70.9,29.79,South,174,0.0,0.0,93,0.00,,,0.06,0,WeatherCatV1.11B39,2013-07-11 10:31:00,
2013-07-11 03:36:00,73.1,70.9,29.79,South,174,0.0,1.0,93,0.00,,,0.06,0,WeatherCatV1.11B39,2013-07-11 10:36:00,
2013-07-11 03:41:00,73.0,70.8,29.80,South,174,2.0,3.0,93,0.00,,,0.06,0,WeatherCatV1.11B39,2013-07-11 10:41:00,
2013-07-11 03:46:00,72.7,70.6,29.80,South,174,0.0,0.0,93,0.00,,,0.06,0,WeatherCatV1.11B39,2013-07-11 10:46:00,
2013-07-11 03:51:00,72.5,70.4,29.80,South,175,1.0,3.0,93,0.00,,,0.06,0,WeatherCatV1.11B39,2013-07-11 10:51:00,
2013-07-11 03:56:00,72.3,70.2,29.80,South,175,0.0,1.0,93,0.00,,,0.06,0,WeatherCatV1.11B39,2013-07-11 10:56:00,
2013-07-11 04:01:00,72.4,70.3,29.81,South,176,2.0,3.0,93,0.00,,,0.06,0,WeatherCatV1.11B39,2013-07-11 11:01:00,
2013-07-11 04:06:00,72.5,70.4,29.81,WSW,248,1.0,4.0,93,0.00,,,0.06,0,WeatherCatV1.11B39,2013-07-11 11:06:00,
2013-07-11 04:11:00,72.5,70.4,29.81,WNW,297,4.0,5.0,93,0.00,,,0.06,0,WeatherCatV1.11B39,2013-07-11 11:11:00,
2013-07-11 04:16:00,72.4,70.3,29.81,NW,313,1.0,5.0,93,0.00,,,0.06,0,WeatherCatV1.11B39,2013-07-11 11:16:00,
2013-07-11 04:21:00,72.4,69.9,29.81,NW,311,1.0,4.0,92,0.00,,,0.06,0,WeatherCatV1.11B39,2013-07-11 11:21:00,
2013-07-11 04:26:00,72.4,69.9,29.82,NW,311,0.0,0.0,92,0.00,,,0.06,0,WeatherCatV1.11B39,2013-07-11 11:26:00,
2013-07-11 04:31:00,72.5,70.0,29.82,NW,311,0.0,2.0,92,0.00,,,0.06,0,WeatherCatV1.11B39,2013-07-11 11:31:00,
2013-07-11 04:36:00,72.4,69.9,29.82,NW,311,0.0,0.0,92,0.00,,,0.06,0,WeatherCatV1.11B39,2013-07-11 11:36:00,
2013-07-11 04:41:00,72.3,70.2,29.82,NW,311,1.0,1.0,93,0.00,,,0.06,0,WeatherCatV1.11B39,2013-07-11 11:41:00,
2013-07-11 04:46:00,72.2,69.7,29.82,NW,307,0.0,3.0,92,0.00,,,0.06,0,WeatherCatV1.11B39,2013-07-11 11:46:00,
2013-07-11 04:51:00,72.2,69.7,29.82,NW,307,1.0,2.0,92,0.00,,,0.06,0,WeatherCatV1.11B39,2013-07-11 11:51:00,
2013-07-11 04:56:00,72.1,69.6,29.83,NW,307,0.0,1.0,92,0.00,,,0.06,0,WeatherCatV1.11B39,2013-07-11 11:56:00,
2013-07-11 05:01:00,72.1,69.6,29.83,NW,307,1.0,3.0,92,0.00,,,0.06,0,WeatherCatV1.11B39,2013-07-11 12:01:00,
2013-07-11 05:06:00,72.1,69.3,29.83,NW,307,0.0,2.0,91,0.00,,,0.06,0,WeatherCatV1.11B39,2013-07-11 12:06:00,
2013-07-11 05:11:00,72.1,69.3,29.83,NW,307,0.0,1.0,91,0.00,,,0.06,0,WeatherCatV1.11B39,2013-07-11 12:11:00,
2013-07-11 05:16:00,72.2,69.4,29.83,NW,307,0.0,2.0,91,0.00,,,0.06,0,WeatherCatV1.11B39,2013-07-11 12:16:00,
2013-07-11 05:21:00,72.4,69.6,29.83,NW,307,1.0,1.0,91,0.00,,,0.06,0,WeatherCatV1.11B39,2013-07-11 12:21:00,
2013-07-11 05:26:00,72.4,69.3,29.83,NW,307,0.0,1.0,90,0.00,,,0.06,0,WeatherCatV1.11B39,2013-07-11 12:26:00,
2013-07-11 05:31:00,72.4,69.0,29.83,NW,307,2.0,2.0,89,0.00,,,0.06,0,WeatherCatV1.11B39,2013-07-11 12:31:00,
2013-07-11 05:36:00,72.5,69.1,29.83,NW,307,0.0,1.0,89,0.00,,,0.06,5,WeatherCatV1.11B39,2013-07-11 12:36:00,
2013-07-11 05:41:00,72.5,68.7,29.83,NW,307,1.0,2.0,88,0.00,,,0.06,11,WeatherCatV1.11B39,2013-07-11 12:41:00,
2013-07-11 05:46:00,72.6,68.8,29.83,NW,307,2.0,3.0,88,0.00,,,0.06,16,WeatherCatV1.11B39,2013-07-11 12:46:00,
2013-07-11 05:51:00,72.7,68.6,29.84,NW,307,1.0,1.0,87,0.00,,,0.06,23,WeatherCatV1.11B39,2013-07-11 12:51:00,
2013-07-11 05:56:00,72.9,68.1,29.84,NW,307,0.0,0.0,85,0.00,,,0.06,33,WeatherCatV1.11B39,2013-07-11 12:56:00,
2013-07-11 06:01:00,73.1,68.3,29.84,NW,307,0.0,1.0,85,0.00,,,0.06,46,WeatherCatV1.11B39,2013-07-11 13:01:00,
2013-07-11 06:06:00,73.1,68.0,29.84,NW,307,0.0,1.0,84,0.00,,,0.06,62,WeatherCatV1.11B39,2013-07-11 13:06:00,
2013-07-11 06:11:00,73.4,67.9,29.84,NW,307,0.0,1.0,83,0.00,,,0.06,86,WeatherCatV1.11B39,2013-07-11 13:11:00,
2013-07-11 06:16:00,73.7,67.8,29.85,NW,307,2.0,2.0,82,0.00,,,0.06,91,WeatherCatV1.11B39,2013-07-11 13:16:00,
2013-07-11 06:21:00,73.9,67.7,29.85,NW,307,1.0,2.0,81,0.00,,,0.06,84,WeatherCatV1.11B39,2013-07-11 13:21:00,
2013-07-11 06:26:00,74.0,67.8,29.85,NW,307,0.0,3.0,81,0.00,,,0.06,72,WeatherCatV1.11B39,2013-07-11 13:26:00,
2013-07-11 06:31:00,74.1,67.9,29.85,NW,307,0.0,1.0,81,0.00,,,0.06,60,WeatherCatV1.11B39,2013-07-11 13:31:00,
2013-07-11 06:36:00,74.2,67.6,29.85,NW,307,1.0,3.0,80,0.00,,,0.06,54,WeatherCatV1.11B39,2013-07-11 13:36:00,
2013-07-11 06:41:00,74.4,67.4,29.85,NW,307,0.0,0.0,79,0.00,,,0.06,47,WeatherCatV1.11B39,2013-07-11 13:41:00,
2013-07-11 06:46:00,74.5,67.9,29.85,NW,307,0.0,1.0,80,0.00,,,0.06,44,WeatherCatV1.11B39,2013-07-11 13:46:00,
2013-07-11 06:51:00,74.7,68.1,29.85,NW,307,0.0,0.0,80,0.00,,,0.06,51,WeatherCatV1.11B39,2013-07-11 13:51:00,
2013-07-11 06:56:00,74.8,67.8,29.85,NW,307,0.0,1.0,79,0.00,,,0.06,74,WeatherCatV1.11B39,2013-07-11 13:56:00,
2013-07-11 07:01:00,75.1,68.1,29.85,NW,307,0.0,0.0,79,0.00,,,0.06,83,WeatherCatV1.11B39,2013-07-11 14:01:00,
2013-07-11 07:06:00,75.3,68.7,29.85,NW,307,2.0,2.0,80,0.00,,,0.06,137,WeatherCatV1.11B39,2013-07-11 14:06:00,
2013-07-11 07:11:00,75.9,68.2,29.85,NW,307,0.0,1.0,77,0.00,,,0.06,241,WeatherCatV1.11B39,2013-07-11 14:11:00,
2013-07-11 07:16:00,76.7,68.5,29.85,NW,307,1.0,3.0,76,0.00,,,0.06,316,WeatherCatV1.11B39,2013-07-11 14:16:00,
2013-07-11 07:21:00,77.3,68.0,29.85,NW,307,1.0,1.0,73,0.00,,,0.06,230,WeatherCatV1.11B39,2013-07-11 14:21:00,
2013-07-11 07:26:00,77.7,67.9,29.85,NW,307,1.0,3.0,72,0.00,,,0.06,214,WeatherCatV1.11B39,2013-07-11 14:26:00,
2013-07-11 07:31:00,78.0,67.8,29.85,NW,307,1.0,2.0,71,0.00,,,0.06,287,WeatherCatV1.11B39,2013-07-11 14:31:00,
2013-07-11 07:36:00,78.4,66.9,29.85,NW,309,3.0,4.0,68,0.00,,,0.06,311,WeatherCatV1.11B39,2013-07-11 14:36:00,
2013-07-11 07:41:00,78.8,67.3,29.85,West,272,1.0,1.0,68,0.00,,,0.06,151,WeatherCatV1.11B39,2013-07-11 14:41:00,
2013-07-11 07:46:00,79.0,67.1,29.85,West,272,1.0,2.0,67,0.00,,,0.06,364,WeatherCatV1.11B39,2013-07-11 14:46:00,
2013-07-11 07:51:00,79.6,66.8,29.85,West,272,1.0,2.0,65,0.00,,,0.06,388,WeatherCatV1.11B39,2013-07-11 14:51:00,
2013-07-11 07:56:00,80.1,67.7,29.85,West,274,4.0,5.0,66,0.00,,,0.06,388,WeatherCatV1.11B39,2013-07-11 14:56:00,
2013-07-11 08:01:00,80.2,67.8,29.85,West,267,1.0,2.0,66,0.00,,,0.06,417,WeatherCatV1.11B39,2013-07-11 15:01:00,
2013-07-11 08:06:00,81.0,68.1,29.85,West,267,2.0,4.0,65,0.00,,,0.06,413,WeatherCatV1.11B39,2013-07-11 15:06:00,
2013-07-11 08:11:00,81.2,68.3,29.85,West,281,1.0,5.0,65,0.00,,,0.06,439,WeatherCatV1.11B39,2013-07-11 15:11:00,
2013-07-11 08:16:00,81.8,68.4,29.85,West,281,1.0,1.0,64,0.00,,,0.06,452,WeatherCatV1.11B39,2013-07-11 15:16:00,
2013-07-11 08:21:00,82.2,68.8,29.85,WNW,284,4.0,5.0,64,0.00,,,0.06,478,WeatherCatV1.11B39,2013-07-11 15:21:00,
2013-07-11 08:26:00,82.2,69.2,29.85,WNW,282,1.0,1.0,65,0.00,,,0.06,494,WeatherCatV1.11B39,2013-07-11 15:26:00,
2013-07-11 08:31:00,82.8,68.9,29.85,West,273,3.0,4.0,63,0.00,,,0.06,492,WeatherCatV1.11B39,2013-07-11 15:31:00,
2013-07-11 08:36:00,82.9,67.6,29.85,WNW,303,3.0,4.0,60,0.00,,,0.06,543,WeatherCatV1.11B39,2013-07-11 15:36:00,
2013-07-11 08:41:00,82.7,67.4,29.84,SW,232,1.0,3.0,60,0.00,,,0.06,239,WeatherCatV1.11B39,2013-07-11 15:41:00,
2013-07-11 08:46:00,82.7,68.3,29.84,SW,227,1.0,6.0,62,0.00,,,0.06,436,WeatherCatV1.11B39,2013-07-11 15:46:00,
2013-07-11 08:51:00,82.9,68.0,29.84,South,189,4.0,5.0,61,0.00,,,0.06,221,WeatherCatV1.11B39,2013-07-11 15:51:00,
2013-07-11 08:56:00,82.4,68.0,29.84,SSW,201,5.0,5.0,62,0.00,,,0.06,221,WeatherCatV1.11B39,2013-07-11 15:56:00,
2013-07-11 09:01:00,82.5,67.2,29.84,South,186,3.0,7.0,60,0.00,,,0.06,580,WeatherCatV1.11B39,2013-07-11 16:01:00,
2013-07-11 09:06:00,82.9,67.1,29.84,WSW,256,3.0,4.0,59,0.00,,,0.06,580,WeatherCatV1.11B39,2013-07-11 16:06:00,
2013-07-11 09:11:00,83.0,67.2,29.84,West,259,2.0,2.0,59,0.00,,,0.06,566,WeatherCatV1.11B39,2013-07-11 16:11:00,
2013-07-11 09:16:00,82.9,67.1,29.84,West,259,0.0,1.0,59,0.00,,,0.06,566,WeatherCatV1.11B39,2013-07-11 16:16:00,
2013-07-11 09:21:00,83.8,67.4,29.84,SSW,193,1.0,4.0,58,0.00,,,0.06,707,WeatherCatV1.11B39,2013-07-11 16:21:00,
2013-07-11 09:26:00,84.1,67.7,29.84,West,262,2.0,5.0,58,0.00,,,0.06,666,WeatherCatV1.11B39,2013-07-11 16:26:00,
2013-07-11 09:31:00,84.4,67.0,29.84,WSW,251,2.0,5.0,56,0.00,,,0.06,606,WeatherCatV1.11B39,2013-07-11 16:31:00,
2013-07-11 09:36:00,84.5,66.5,29.84,WSW,253,1.0,2.0,55,0.00,,,0.06,715,WeatherCatV1.11B39,2013-07-11 16:36:00,
2013-07-11 09:41:00,84.3,65.8,29.84,WSW,253,0.0,2.0,54,0.00,,,0.06,508,WeatherCatV1.11B39,2013-07-11 16:41:00,
2013-07-11 09:46:00,84.7,66.7,29.84,South,172,3.0,5.0,55,0.00,,,0.06,264,WeatherCatV1.11B39,2013-07-11 16:46:00,
2013-07-11 09:51:00,84.1,66.2,29.84,South,169,0.0,2.0,55,0.00,,,0.06,318,WeatherCatV1.11B39,2013-07-11 16:51:00,
2013-07-11 09:56:00,83.9,66.5,29.84,South,170,1.0,4.0,56,0.00,,,0.06,329,WeatherCatV1.11B39,2013-07-11 16:56:00,
2013-07-11 10:01:00,84.4,67.0,29.84,South,169,1.0,2.0,56,0.00,,,0.06,754,WeatherCatV1.11B39,2013-07-11 17:01:00,
2013-07-11 10:06:00,84.6,66.6,29.84,SSE,168,0.0,0.0,55,0.00,,,0.06,847,WeatherCatV1.11B39,2013-07-11 17:06:00,
2013-07-11 10:11:00,86.6,67.4,29.83,NW,304,2.0,2.0,53,0.00,,,0.06,886,WeatherCatV1.11B39,2013-07-11 17:11:00,
2013-07-11 10:16:00,87.1,66.7,29.84,WSW,252,2.0,4.0,51,0.00,,,0.06,830,WeatherCatV1.11B39,2013-07-11 17:16:00,
2013-07-11 10:21:00,86.8,67.6,29.84,SW,224,3.0,5.0,53,0.00,,,0.06,921,WeatherCatV1.11B39,2013-07-11 17:21:00,
2013-07-11 10:26:00,88.8,67.1,29.84,SSW,210,3.0,5.0,49,0.00,,,0.06,891,WeatherCatV1.11B39,2013-07-11 17:26:00,
2013-07-11 10:31:00,88.0,66.4,29.83,North,3,4.0,6.0,49,0.00,,,0.06,942,WeatherCatV1.11B39,2013-07-11 17:31:00,
2013-07-11 10:36:00,87.7,66.7,29.83,SW,230,2.0,4.0,50,0.00,,,0.06,868,WeatherCatV1.11B39,2013-07-11 17:36:00,
2013-07-11 10:41:00,87.5,67.1,29.83,West,273,4.0,6.0,51,0.00,,,0.06,856,WeatherCatV1.11B39,2013-07-11 17:41:00,
2013-07-11 10:46:00,88.4,67.4,29.83,NNW,334,2.0,5.0,50,0.00,,,0.06,856,WeatherCatV1.11B39,2013-07-11 17:46:00,
2013-07-11 10:51:00,89.1,68.0,29.83,SSW,199,1.0,6.0,50,0.00,,,0.06,984,WeatherCatV1.11B39,2013-07-11 17:51:00,
2013-07-11 10:56:00,88.9,67.2,29.82,WSW,243,0.0,4.0,49,0.00,,,0.06,390,WeatherCatV1.11B39,2013-07-11 17:56:00,
2013-07-11 11:01:00,88.4,67.4,29.82,SW,231,4.0,8.0,50,0.00,,,0.06,856,WeatherCatV1.11B39,2013-07-11 18:01:00,
2013-07-11 11:06:00,87.7,66.1,29.82,West,267,1.0,2.0,49,0.00,,,0.06,810,WeatherCatV1.11B39,2013-07-11 18:06:00,
2013-07-11 11:11:00,88.0,67.6,29.82,West,269,4.0,4.0,51,0.00,,,0.06,830,WeatherCatV1.11B39,2013-07-11 18:11:00,
2013-07-11 11:16:00,88.5,67.4,29.82,North,353,0.0,1.0,50,0.00,,,0.06,745,WeatherCatV1.11B39,2013-07-11 18:16:00,
2013-07-11 11:21:00,89.0,68.5,29.82,South,181,5.0,7.0,51,0.00,,,0.06,810,WeatherCatV1.11B39,2013-07-11 18:21:00,
2013-07-11 11:26:00,89.5,68.4,29.82,SSW,194,3.0,4.0,50,0.00,,,0.06,782,WeatherCatV1.11B39,2013-07-11 18:26:00,
2013-07-11 11:31:00,90.2,68.4,29.82,WSW,251,5.0,6.0,49,0.00,,,0.06,735,WeatherCatV1.11B39,2013-07-11 18:31:00,
2013-07-11 11:36:00,89.6,67.9,29.82,South,188,1.0,4.0,49,0.00,,,0.06,849,WeatherCatV1.11B39,2013-07-11 18:36:00,
2013-07-11 11:41:00,90.6,68.8,29.82,South,184,3.0,7.0,49,0.00,,,0.06,916,WeatherCatV1.11B39,2013-07-11 18:41:00,
2013-07-11 11:46:00,91.7,68.6,29.81,South,188,1.0,4.0,47,0.00,,,0.06,998,WeatherCatV1.11B39,2013-07-11 18:46:00,
2013-07-11 11:51:00,91.8,68.0,29.81,SSE,163,5.0,6.0,46,0.00,,,0.06,642,WeatherCatV1.11B39,2013-07-11 18:51:00,
2013-07-11 11:56:00,91.0,67.9,29.81,NW,313,1.0,4.0,47,0.00,,,0.06,893,WeatherCatV1.11B39,2013-07-11 18:56:00,
2013-07-11 12:01:00,90.6,67.6,29.81,West,262,5.0,7.0,47,0.00,,,0.06,311,WeatherCatV1.11B39,2013-07-11 19:01:00,
2013-07-11 12:06:00,90.8,67.1,29.80,NNW,348,0.0,1.0,46,0.00,,,0.06,963,WeatherCatV1.11B39,2013-07-11 19:06:00,
2013-07-11 12:11:00,91.7,67.3,29.80,SSW,210,4.0,6.0,45,0.00,,,0.06,1004,WeatherCatV1.11B39,2013-07-11 19:11:00,
2013-07-11 12:17:00,92.4,67.9,29.80,NW,321,1.0,6.0,45,0.00,,,0.06,988,WeatherCatV1.11B39,2013-07-11 19:17:00,
2013-07-11 12:22:00,91.7,67.3,29.79,West,262,5.0,8.0,45,0.00,,,0.06,1005,WeatherCatV1.11B39,2013-07-11 19:22:00,
2013-07-11 12:27:00,92.2,67.7,29.79,NW,312,7.0,8.0,45,0.00,,,0.06,986,WeatherCatV1.11B39,2013-07-11 19:27:00,
2013-07-11 12:32:00,91.9,66.8,29.79,NNW,336,3.0,5.0,44,0.00,,,0.06,960,WeatherCatV1.11B39,2013-07-11 19:32:00,
2013-07-11 12:37:00,92.1,67.0,29.79,WSW,251,7.0,9.0,44,0.00,,,0.06,889,WeatherCatV1.11B39,2013-07-11 19:37:00,
2013-07-11 12:42:00,91.7,66.6,29.79,West,263,1.0,6.0,44,0.00,,,0.06,889,WeatherCatV1.11B39,2013-07-11 19:42:00,
2013-07-11 12:47:00,91.5,65.8,29.78,SW,234,6.0,8.0,43,0.00,,,0.06,817,WeatherCatV1.11B39,2013-07-11 19:47:00,
2013-07-11 12:52:00,92.8,66.3,29.78,SW,235,6.0,7.0,42,0.00,,,0.06,1014,WeatherCatV1.11B39,2013-07-11 19:52:00,
2013-07-11 12:57:00,93.7,66.4,29.78,SW,216,5.0,10.0,41,0.00,,,0.06,1020,WeatherCatV1.11B39,2013-07-11 19:57:00,
2013-07-11 13:02:00,93.6,65.6,29.78,SSE,161,0.0,4.0,40,0.00,,,0.06,1030,WeatherCatV1.11B39,2013-07-11 20:02:00,
2013-07-11 13:07:00,94.3,67.6,29.78,SSW,201,5.0,6.0,42,0.00,,,0.06,1055,WeatherCatV1.11B39,2013-07-11 20:07:00,
2013-07-11 13:12:00,95.5,66.5,29.77,WSW,257,7.0,14.0,39,0.00,,,0.06,1092,WeatherCatV1.11B39,2013-07-11 20:12:00,
2013-07-11 13:17:00,95.5,65.8,29.77,WSW,252,3.0,9.0,38,0.00,,,0.06,1100,WeatherCatV1.11B39,2013-07-11 20:17:00,
2013-07-11 13:22:00,95.2,67.0,29.77,WSW,245,13.0,13.0,40,0.00,,,0.06,517,WeatherCatV1.11B39,2013-07-11 20:22:00,
2013-07-11 13:27:00,93.8,66.5,29.77,WSW,254,9.0,12.0,41,0.00,,,0.06,425,WeatherCatV1.11B39,2013-07-11 20:27:00,
2013-07-11 13:32:00,92.8,66.3,29.77,WNW,293,4.0,9.0,42,0.00,,,0.06,355,WeatherCatV1.11B39,2013-07-11 20:32:00,
2013-07-11 13:37:00,92.0,65.6,29.77,West,267,1.0,7.0,42,0.00,,,0.06,295,WeatherCatV1.11B39,2013-07-11 20:37:00,
2013-07-11 13:42:00,92.2,66.4,29.77,SW,228,5.0,7.0,43,0.00,,,0.06,278,WeatherCatV1.11B39,2013-07-11 20:42:00,
2013-07-11 13:47:00,92.2,66.4,29.77,WSW,242,4.0,10.0,43,0.00,,,0.06,329,WeatherCatV1.11B39,2013-07-11 20:47:00,
2013-07-11 13:52:00,91.8,67.4,29.77,WNW,292,11.0,14.0,45,0.00,,,0.06,262,WeatherCatV1.11B39,2013-07-11 20:52:00,
2013-07-11 13:57:00,90.5,67.5,29.76,West,267,7.0,18.0,47,0.00,,,0.06,221,WeatherCatV1.11B39,2013-07-11 20:57:00,
2013-07-11 14:02:00,89.6,67.3,29.76,West,259,6.0,17.0,48,0.00,,,0.06,248,WeatherCatV1.11B39,2013-07-11 21:02:00,
2013-07-11 14:07:00,89.2,68.1,29.75,West,275,11.0,15.0,50,0.00,,,0.06,236,WeatherCatV1.11B39,2013-07-11 21:07:00,
2013-07-11 14:12:00,88.3,68.4,29.76,WNW,282,11.0,18.0,52,0.00,,,0.06,220,WeatherCatV1.11B39,2013-07-11 21:12:00,
2013-07-11 14:17:00,87.5,68.8,29.76,West,277,7.0,7.0,54,0.00,,,0.06,207,WeatherCatV1.11B39,2013-07-11 21:17:00,
2013-07-11 14:22:00,87.1,68.9,29.76,WNW,287,7.0,15.0,55,0.00,,,0.06,243,WeatherCatV1.11B39,2013-07-11 21:22:00,
2013-07-11 14:27:00,87.3,69.1,29.76,West,274,4.0,12.0,55,0.00,,,0.06,316,WeatherCatV1.11B39,2013-07-11 21:27:00,
2013-07-11 14:32:00,87.3,69.1,29.76,NW,313,11.0,15.0,55,0.00,,,0.06,338,WeatherCatV1.11B39,2013-07-11 21:32:00,
2013-07-11 14:37:00,87.1,69.5,29.76,West,281,8.0,16.0,56,0.00,,,0.06,323,WeatherCatV1.11B39,2013-07-11 21:37:00,
2013-07-11 14:42:00,87.6,69.4,29.76,WNW,301,11.0,13.0,55,0.00,,,0.06,267,WeatherCatV1.11B39,2013-07-11 21:42:00,
2013-07-11 14:47:00,87.5,69.3,29.76,WSW,250,3.0,9.0,55,0.00,,,0.06,223,WeatherCatV1.11B39,2013-07-11 21:47:00,
2013-07-11 14:52:00,87.9,69.7,29.75,WSW,251,7.0,9.0,55,0.00,,,0.06,243,WeatherCatV1.11B39,2013-07-11 21:52:00,
2013-07-11 14:57:00,88.3,69.5,29.74,WSW,245,8.0,10.0,54,0.00,,,0.06,295,WeatherCatV1.11B39,2013-07-11 21:57:00,
2013-07-11 15:02:00,88.8,69.4,29.74,West,278,5.0,13.0,53,0.00,,,0.06,513,WeatherCatV1.11B39,2013-07-11 22:02:00,
2013-07-11 15:07:00,89.0,69.6,29.74,WNW,282,3.0,11.0,53,0.00,,,0.06,345,WeatherCatV1.11B39,2013-07-11 22:07:00,
2013-07-11 15:10:00,88.8,68.9,29.74,WNW,290,10.0,10.0,52,0.00,,,0.06,327,WeatherCatV1.11B39,2013-07-11 22:10:00,
2013-07-11 15:15:00,88.5,68.6,29.75,WNW,285,4.0,8.0,52,0.00,,,0.06,362,WeatherCatV1.11B39,2013-07-11 22:15:00,
2013-07-11 15:20:00,89.0,67.9,29.75,SW,235,7.0,9.0,50,0.00,,,0.06,338,WeatherCatV1.11B39,2013-07-11 22:20:00,
2013-07-11 15:25:00,89.0,67.9,29.75,WNW,300,2.0,7.0,50,0.00,,,0.06,264,WeatherCatV1.11B39,2013-07-11 22:25:00,
2013-07-11 15:30:00,89.1,67.4,29.76,WSW,248,7.0,8.0,49,0.00,,,0.06,241,WeatherCatV1.11B39,2013-07-11 22:30:00,
2013-07-11 15:35:00,89.0,67.3,29.75,WSW,246,1.0,6.0,49,0.00,,,0.06,200,WeatherCatV1.11B39,2013-07-11 22:35:00,
2013-07-11 15:40:00,88.7,67.0,29.75,WSW,244,4.0,5.0,49,0.00,,,0.06,206,WeatherCatV1.11B39,2013-07-11 22:40:00,
2013-07-11 15:45:00,88.7,66.4,29.75,SW,236,0.0,4.0,48,0.00,,,0.06,192,WeatherCatV1.11B39,2013-07-11 22:45:00,
2013-07-11 15:50:00,87.8,68.5,29.75,ESE,111,4.0,8.0,53,0.00,,,0.06,139,WeatherCatV1.11B39,2013-07-11 22:50:00,
2013-07-11 15:55:00,84.8,68.3,29.75,ESE,104,1.0,4.0,58,0.00,,,0.06,132,WeatherCatV1.11B39,2013-07-11 22:55:00,
2013-07-11 16:00:00,84.1,68.7,29.74,East,96,1.0,5.0,60,0.00,,,0.06,137,WeatherCatV1.11B39,2013-07-11 23:00:00,
2013-07-11 16:05:00,84.5,68.6,29.74,East,101,1.0,4.0,59,0.00,,,0.06,153,WeatherCatV1.11B39,2013-07-11 23:05:00,
2013-07-11 16:10:00,85.2,68.2,29.74,SE,129,4.0,4.0,57,0.00,,,0.06,174,WeatherCatV1.11B39,2013-07-11 23:10:00,
2013-07-11 16:15:00,84.7,68.3,29.74,ESE,118,0.0,3.0,58,0.00,,,0.06,195,WeatherCatV1.11B39,2013-07-11 23:15:00,
2013-07-11 16:20:00,84.6,68.2,29.74,East,91,0.0,3.0,58,0.00,,,0.06,220,WeatherCatV1.11B39,2013-07-11 23:20:00,
2013-07-11 16:25:00,85.2,68.7,29.74,ESE,105,2.0,5.0,58,0.00,,,0.06,241,WeatherCatV1.11B39,2013-07-11 23:25:00,
2013-07-11 16:30:00,85.6,68.6,29.74,SE,134,4.0,6.0,57,0.00,,,0.06,258,WeatherCatV1.11B39,2013-07-11 23:30:00,
2013-07-11 16:35:00,86.2,68.6,29.74,SE,134,6.0,7.0,56,0.00,,,0.06,255,WeatherCatV1.11B39,2013-07-11 23:35:00,
2013-07-11 16:40:00,86.5,67.8,29.74,SE,132,1.0,5.0,54,0.00,,,0.06,271,WeatherCatV1.11B39,2013-07-11 23:40:00,
2013-07-11 16:45:00,86.7,68.0,29.74,ESE,122,2.0,4.0,54,0.00,,,0.06,320,WeatherCatV1.11B39,2013-07-11 23:45:00,
2013-07-11 16:50:00,87.0,67.8,29.74,ESE,120,2.0,4.0,53,0.00,,,0.06,360,WeatherCatV1.11B39,2013-07-11 23:50:00,
2013-07-11 16:55:00,87.7,68.4,29.74,ESE,103,3.0,4.0,53,0.00,,,0.06,411,WeatherCatV1.11B39,2013-07-11 23:55:00,
2013-07-11 17:00:00,88.2,68.9,29.74,East,84,1.0,5.0,53,0.00,,,0.06,406,WeatherCatV1.11B39,2013-07-12 00:00:00,
2013-07-11 17:05:00,88.1,67.7,29.73,ENE,63,2.0,4.0,51,0.00,,,0.06,359,WeatherCatV1.11B39,2013-07-12 00:05:00,
2013-07-11 17:10:00,88.2,68.3,29.73,ENE,63,1.0,4.0,52,0.00,,,0.06,313,WeatherCatV1.11B39,2013-07-12 00:10:00,
2013-07-11 17:15:00,88.2,67.2,29.73,ENE,64,1.0,3.0,50,0.00,,,0.06,214,WeatherCatV1.11B39,2013-07-12 00:15:00,
2013-07-11 17:20:00,88.2,67.2,29.72,ENE,76,1.0,2.0,50,0.00,,,0.06,193,WeatherCatV1.11B39,2013-07-12 00:20:00,
2013-07-11 17:25:00,88.0,67.6,29.72,ENE,76,2.0,2.0,51,0.00,,,0.06,171,WeatherCatV1.11B39,2013-07-12 00:25:00,
2013-07-11 17:30:00,88.1,67.1,29.72,East,96,2.0,2.0,50,0.00,,,0.06,160,WeatherCatV1.11B39,2013-07-12 00:30:00,
2013-07-11 17:35:00,88.1,66.5,29.73,NE,56,1.0,4.0,49,0.00,,,0.06,146,WeatherCatV1.11B39,2013-07-12 00:35:00,
2013-07-11 17:40:00,88.1,66.5,29.73,ENE,57,1.0,2.0,49,0.00,,,0.06,137,WeatherCatV1.11B39,2013-07-12 00:40:00,
2013-07-11 17:45:00,87.9,66.3,29.73,ENE,57,1.0,2.0,49,0.00,,,0.06,130,WeatherCatV1.11B39,2013-07-12 00:45:00,
2013-07-11 17:50:00,87.9,66.9,29.73,SE,136,4.0,5.0,50,0.00,,,0.06,116,WeatherCatV1.11B39,2013-07-12 00:50:00,
2013-07-11 17:55:00,87.6,67.2,29.73,SE,135,0.0,1.0,51,0.00,,,0.06,100,WeatherCatV1.11B39,2013-07-12 00:55:00,
2013-07-11 18:00:00,87.5,68.2,29.73,SE,135,1.0,3.0,53,0.00,,,0.06,84,WeatherCatV1.11B39,2013-07-12 01:00:00,
2013-07-11 18:05:00,87.4,68.1,29.72,ESE,117,1.0,3.0,53,0.00,,,0.06,72,WeatherCatV1.11B39,2013-07-12 01:05:00,
2013-07-11 18:10:00,87.3,68.0,29.72,East,99,2.0,2.0,53,0.00,,,0.06,62,WeatherCatV1.11B39,2013-07-12 01:10:00,
2013-07-11 18:15:00,87.2,67.9,29.72,East,96,1.0,5.0,53,0.00,,,0.06,54,WeatherCatV1.11B39,2013-07-12 01:15:00,
2013-07-11 18:20:00,86.9,67.7,29.73,East,96,0.0,2.0,53,0.00,,,0.06,49,WeatherCatV1.11B39,2013-07-12 01:20:00,
2013-07-11 18:25:00,86.9,67.7,29.73,East,94,2.0,3.0,53,0.00,,,0.06,46,WeatherCatV1.11B39,2013-07-12 01:25:00,
2013-07-11 18:31:00,86.8,67.6,29.73,East,89,1.0,5.0,53,0.00,,,0.06,39,WeatherCatV1.11B39,2013-07-12 01:31:00,
2013-07-11 18:36:00,86.7,67.5,29.73,East,91,2.0,2.0,53,0.00,,,0.06,32,WeatherCatV1.11B39,2013-07-12 01:36:00,
2013-07-11 18:41:00,86.5,67.3,29.73,East,87,3.0,5.0,53,0.00,,,0.06,28,WeatherCatV1.11B39,2013-07-12 01:41:00,
2013-07-11 18:46:00,86.4,67.8,29.72,East,89,1.0,3.0,54,0.00,,,0.06,25,WeatherCatV1.11B39,2013-07-12 01:46:00,
2013-07-11 18:50:00,86.2,68.1,29.73,East,92,1.0,3.0,55,0.00,,,0.06,23,WeatherCatV1.11B39,2013-07-12 01:50:00,
2013-07-11 18:55:00,86.1,68.0,29.73,East,93,1.0,4.0,55,0.00,,,0.06,21,WeatherCatV1.11B39,2013-07-12 01:55:00,
2013-07-11 19:00:00,85.9,68.9,29.73,East,95,1.0,3.0,57,0.00,,,0.06,19,WeatherCatV1.11B39,2013-07-12 02:00:00,
2013-07-11 19:06:00,85.7,69.2,29.73,East,98,1.0,2.0,58,0.00,,,0.06,16,WeatherCatV1.11B39,2013-07-12 02:06:00,
2013-07-11 19:11:00,85.5,69.5,29.73,East,99,1.0,4.0,59,0.00,,,0.06,12,WeatherCatV1.11B39,2013-07-12 02:11:00,
2013-07-11 19:16:00,85.3,69.3,29.74,East,99,0.0,0.0,59,0.00,,,0.06,11,WeatherCatV1.11B39,2013-07-12 02:16:00,
2013-07-11 19:21:00,85.1,69.6,29.74,East,85,1.0,5.0,60,0.00,,,0.06,9,WeatherCatV1.11B39,2013-07-12 02:21:00,
2013-07-11 19:26:00,84.9,69.4,29.74,East,85,1.0,3.0,60,0.00,,,0.06,7,WeatherCatV1.11B39,2013-07-12 02:26:00,
2013-07-11 19:31:00,84.7,69.7,29.74,East,87,2.0,3.0,61,0.00,,,0.06,5,WeatherCatV1.11B39,2013-07-12 02:31:00,
2013-07-11 19:36:00,84.6,69.6,29.73,East,89,1.0,2.0,61,0.00,,,0.06,0,WeatherCatV1.11B39,2013-07-12 02:36:00,
2013-07-11 19:41:00,84.4,69.4,29.74,East,89,0.0,1.0,61,0.00,,,0.06,0,WeatherCatV1.11B39,2013-07-12 02:41:00,
2013-07-11 19:46:00,84.3,69.4,29.74,East,89,1.0,2.0,61,0.00,,,0.06,0,WeatherCatV1.11B39,2013-07-12 02:46:00,
2013-07-11 19:51:00,84.1,69.6,29.74,East,89,0.0,1.0,62,0.00,,,0.06,0,WeatherCatV1.11B39,2013-07-12 02:51:00,
2013-07-11 19:56:00,83.8,69.4,29.74,East,89,1.0,1.0,62,0.00,,,0.06,0,WeatherCatV1.11B39,2013-07-12 02:56:00,
2013-07-11 20:01:00,83.3,69.4,29.73,East,89,0.0,0.0,63,0.00,,,0.06,0,WeatherCatV1.11B39,2013-07-12 03:01:00,
2013-07-11 20:06:00,82.9,69.4,29.73,East,89,0.0,0.0,64,0.00,,,0.06,0,WeatherCatV1.11B39,2013-07-12 03:06:00,
2013-07-11 20:11:00,82.4,69.4,29.73,East,89,0.0,0.0,65,0.00,,,0.06,0,WeatherCatV1.11B39,2013-07-12 03:11:00,
2013-07-11 20:16:00,82.2,69.7,29.73,East,89,0.0,0.0,66,0.00,,,0.06,0,WeatherCatV1.11B39,2013-07-12 03:16:00,
2013-07-11 20:21:00,82.1,69.6,29.73,East,89,0.0,1.0,66,0.00,,,0.06,0,WeatherCatV1.11B39,2013-07-12 03:21:00,
2013-07-11 20:26:00,82.1,70.0,29.73,East,94,1.0,2.0,67,0.00,,,0.06,0,WeatherCatV1.11B39,2013-07-12 03:26:00,
2013-07-11 20:31:00,82.2,69.7,29.73,East,91,2.0,4.0,66,0.00,,,0.06,0,WeatherCatV1.11B39,2013-07-12 03:31:00,
2013-07-11 20:36:00,82.4,69.4,29.73,East,90,2.0,4.0,65,0.00,,,0.06,0,WeatherCatV1.11B39,2013-07-12 03:36:00,
2013-07-11 20:41:00,82.5,69.1,29.72,East,94,1.0,4.0,64,0.00,,,0.06,0,WeatherCatV1.11B39,2013-07-12 03:41:00,
2013-07-11 20:46:00,82.6,69.2,29.72,East,92,0.0,4.0,64,0.00,,,0.06,0,WeatherCatV1.11B39,2013-07-12 03:46:00,
2013-07-11 20:51:00,82.5,69.1,29.72,East,92,1.0,2.0,64,0.00,,,0.06,0,WeatherCatV1.11B39,2013-07-12 03:51:00,
2013-07-11 20:56:00,82.4,69.4,29.72,East,97,1.0,3.0,65,0.00,,,0.06,0,WeatherCatV1.11B39,2013-07-12 03:56:00,
2013-07-11 21:01:00,82.2,69.2,29.72,East,97,2.0,3.0,65,0.00,,,0.06,0,WeatherCatV1.11B39,2013-07-12 04:01:00,
2013-07-11 21:06:00,82.0,69.5,29.73,ESE,105,1.0,7.0,66,0.00,,,0.06,0,WeatherCatV1.11B39,2013-07-12 04:06:00,
2013-07-11 21:11:00,81.9,69.8,29.73,East,95,2.0,4.0,67,0.00,,,0.06,0,WeatherCatV1.11B39,2013-07-12 04:11:00,
2013-07-11 21:15:00,81.8,69.7,29.73,East,93,2.0,5.0,67,0.00,,,0.06,0,WeatherCatV1.11B39,2013-07-12 04:15:00,
2013-07-11 21:20:00,81.8,69.3,29.73,East,99,1.0,4.0,66,0.00,,,0.06,0,WeatherCatV1.11B39,2013-07-12 04:20:00,
2013-07-11 21:25:00,81.8,69.3,29.73,ESE,103,1.0,2.0,66,0.00,,,0.06,0,WeatherCatV1.11B39,2013-07-12 04:25:00,
2013-07-11 21:30:00,81.9,69.0,29.74,East,101,1.0,4.0,65,0.00,,,0.06,0,WeatherCatV1.11B39,2013-07-12 04:30:00,
2013-07-11 21:35:00,81.9,69.0,29.74,East,92,2.0,4.0,65,0.00,,,0.06,0,WeatherCatV1.11B39,2013-07-12 04:35:00,
2013-07-11 21:40:00,82.0,69.0,29.74,ESE,104,4.0,6.0,65,0.00,,,0.06,0,WeatherCatV1.11B39,2013-07-12 04:40:00,
2013-07-11 21:45:00,82.0,69.0,29.74,ESE,103,1.0,4.0,65,0.00,,,0.06,0,WeatherCatV1.11B39,2013-07-12 04:45:00,
2013-07-11 21:50:00,82.0,69.0,29.74,East,99,1.0,3.0,65,0.00,,,0.06,0,WeatherCatV1.11B39,2013-07-12 04:50:00,
2013-07-11 21:55:00,82.0,69.0,29.74,East,99,1.0,4.0,65,0.00,,,0.06,0,WeatherCatV1.11B39,2013-07-12 04:55:00,
2013-07-11 22:00:00,81.8,69.3,29.74,East,98,2.0,3.0,66,0.00,,,0.06,0,WeatherCatV1.11B39,2013-07-12 05:00:00,
2013-07-11 22:05:00,81.8,69.3,29.75,East,96,1.0,3.0,66,0.00,,,0.06,0,WeatherCatV1.11B39,2013-07-12 05:05:00,
2013-07-11 22:10:00,81.5,69.0,29.75,ESE,105,3.0,4.0,66,0.00,,,0.06,0,WeatherCatV1.11B39,2013-07-12 05:10:00,
2013-07-11 22:15:00,81.3,68.8,29.75,ESE,105,2.0,2.0,66,0.00,,,0.06,0,WeatherCatV1.11B39,2013-07-12 05:15:00,
2013-07-11 22:20:00,81.2,68.7,29.75,ESE,105,0.0,2.0,66,0.00,,,0.06,0,WeatherCatV1.11B39,2013-07-12 05:20:00,
2013-07-11 22:25:00,81.1,69.1,29.75,ESE,105,0.0,2.0,67,0.00,,,0.06,0,WeatherCatV1.11B39,2013-07-12 05:25:00,
2013-07-11 22:30:00,81.0,69.0,29.74,ESE,105,1.0,2.0,67,0.00,,,0.06,0,WeatherCatV1.11B39,2013-07-12 05:30:00,
2013-07-11 22:35:00,80.8,69.2,29.74,ESE,105,1.0,1.0,68,0.00,,,0.06,0,WeatherCatV1.11B39,2013-07-12 05:35:00,
2013-07-11 22:40:00,80.6,69.0,29.75,ESE,105,0.0,1.0,68,0.00,,,0.06,0,WeatherCatV1.11B39,2013-07-12 05:40:00,
2013-07-11 22:46:00,80.2,69.1,29.75,ESE,105,0.0,1.0,69,0.00,,,0.06,0,WeatherCatV1.11B39,2013-07-12 05:46:00,
2013-07-11 22:51:00,79.9,69.2,29.75,ESE,105,0.0,0.0,70,0.00,,,0.06,0,WeatherCatV1.11B39,2013-07-12 05:51:00,
2013-07-11 22:56:00,79.5,69.2,29.75,ESE,105,2.0,2.0,71,0.00,,,0.06,0,WeatherCatV1.11B39,2013-07-12 05:56:00,
2013-07-11 23:01:00,79.5,68.8,29.75,ESE,105,0.0,1.0,70,0.00,,,0.06,0,WeatherCatV1.11B39,2013-07-12 06:01:00,
2013-07-11 23:06:00,79.6,68.9,29.75,ESE,105,0.0,0.0,70,0.00,,,0.06,0,WeatherCatV1.11B39,2013-07-12 06:06:00,
2013-07-11 23:11:00,79.3,69.1,29.75,ESE,105,0.0,1.0,71,0.00,,,0.06,0,WeatherCatV1.11B39,2013-07-12 06:11:00,
2013-07-11 23:16:00,79.2,69.0,29.75,ESE,105,0.0,0.0,71,0.00,,,0.06,0,WeatherCatV1.11B39,2013-07-12 06:16:00,
2013-07-11 23:21:00,78.9,68.7,29.76,ESE,105,1.0,2.0,71,0.00,,,0.06,0,WeatherCatV1.11B39,2013-07-12 06:21:00,
2013-07-11 23:26:00,78.8,68.6,29.76,ESE,105,0.0,0.0,71,0.00,,,0.06,0,WeatherCatV1.11B39,2013-07-12 06:26:00,
2013-07-11 23:31:00,78.5,68.7,29.76,ESE,105,0.0,0.0,72,0.00,,,0.06,0,WeatherCatV1.11B39,2013-07-12 06:31:00,
2013-07-11 23:36:00,78.6,68.8,29.76,ESE,105,0.0,2.0,72,0.00,,,0.06,0,WeatherCatV1.11B39,2013-07-12 06:36:00,
2013-07-11 23:41:00,78.9,68.7,29.75,ESE,105,0.0,1.0,71,0.00,,,0.06,0,WeatherCatV1.11B39,2013-07-12 06:41:00,
2013-07-11 23:46:00,79.0,68.8,29.75,ESE,105,0.0,0.0,71,0.00,,,0.06,0,WeatherCatV1.11B39,2013-07-12 06:46:00,
2013-07-11 23:51:00,78.8,68.6,29.75,ESE,105,0.0,1.0,71,0.00,,,0.06,0,WeatherCatV1.11B39,2013-07-12 06:51:00,
2013-07-11 23:56:00,78.7,68.5,29.75,ESE,105,1.0,2.0,71,0.00,,,0.06,0,WeatherCatV1.11B39,2013-07-12 06:56:00,